Location: Black Swamp Observatory
(41.3920°N, 84.1250°W)
Time: 03:47:48
(UTC-04:00)

Courier 1B Rocket - Pass Details

Date: 25 January 2022
Orbit: 920 x 1202 km, 28.2° (Epoch: 28 May)

Event Time Altitude Azimuth Distance (km) Brightness Sun altitude
Exits shadow 05:34:16 21° 202° (SSW) 2,086 6.5 -26.2°
Maximum altitude 05:34:49 21° 195° (SSW) 2,068 6.6 -26.1°
Drops below altitude 10° 05:39:27 10° 149° (SSE) 2,684 7.7 -25.2°
Sets 05:42:41 0° 133° (SE) 3,593 8.7 -24.6°
